This is the latest recevied weather packets stored in our database for station/object CT8ACA-6. If no packets are shown the sender has not sent any weather packets the latest 10 day(s).
| Time | Temp. | Humidity | Pressure | Rain* | Wind** | Luminosity | Snow |
|---|---|---|---|---|---|---|---|
| 1787681804 | 24.44° C | 68% | 1023.5 hPa | 0 mm | - | - | - |
| 1787681204 | 24.44° C | 69% | 1024 hPa | 0 mm | - | - | - |
| 1787680604 | 25° C | 69% | 1024 hPa | 0 mm | - | - | - |
| 1787680003 | 24.44° C | 69% | 1023.9 hPa | 0 mm | - | - | - |
| 1787679404 | 25° C | 68% | 1023.9 hPa | 0 mm | - | - | - |
| 1787678804 | 25.56° C | 69% | 1024.1 hPa | 0 mm | - | - | - |
| 1787678203 | 25° C | 69% | 1024.1 hPa | 0 mm | - | - | - |
| 1787677603 | 25° C | 69% | 1024.5 hPa | 0 mm | - | - | - |
| 1787677004 | 25° C | 69% | 1024.5 hPa | 0 mm | - | - | - |
| 1787676404 | 25° C | 69% | 1024.5 hPa | 0 mm | - | - | - |
| 1787675803 | 25.56° C | 69% | 1024.5 hPa | 0 mm | - | - | - |
| 1787675203 | 26.11° C | 69% | 1024.5 hPa | 0 mm | - | - | - |
| 1787674603 | 26.11° C | 68% | 1024.5 hPa | 0 mm | - | - | - |
| 1787674003 | 26.11° C | 70% | 1024.3 hPa | 0 mm | - | - | - |
| 1787673403 | 26.67° C | 68% | 1024.3 hPa | 0 mm | - | - | - |
| 1787672803 | 27.22° C | 70% | 1024.1 hPa | 0 mm | - | - | - |
| 1787672202 | 26.67° C | 70% | 1024.1 hPa | 0 mm | - | - | - |
| 1787671602 | 26.11° C | 68% | 1024.3 hPa | 0 mm | - | - | - |
| 1787671003 | 26.67° C | 69% | 1024.3 hPa | 0 mm | - | - | - |
| 1787670402 | 26.11° C | 69% | 1024.1 hPa | 0 mm | - | - | - |
| 1787669802 | 26.11° C | 68% | 1024.1 hPa | 0 mm | - | - | - |
| 1787669202 | 26.67° C | 69% | 1024.1 hPa | 0 mm | - | - | - |
| 1787668602 | 26.67° C | 69% | 1024.1 hPa | 0 mm | - | - | - |
| 1787668002 | 26.67° C | 68% | 1023.7 hPa | 0 mm | - | - | - |
| 1787667402 | 26.67° C | 67% | 1023.7 hPa | 0 mm | - | - | - |
* Rain latest hour (hover to see other rain measurements)
** Current wind speed in m/s (hover to see current wind gust speed)